EW8484 Weather Reports


Display with metric or nautical units.
time (UTC)temp
F
wind
direction
speed
MPH
gust
MPH
rain 1hr
in
rain 24hr
in
rain mn
in
humidity
%
barometer
mb
20260509145048 47 26 1.0 2.0 0.00 0.10 0.10 49 1014.7
20260509144527 47 0.0 2.0 0.00 0.10 0.10 48 1015.0
20260509144047 46 0.0 1.0 0.00 0.10 0.10 48 1015.0
20260509143527 46 23 1.0 3.0 0.00 0.10 0.10 49 1015.1
20260509143027 46 0.0 2.0 0.01 0.10 0.10 49 1014.9
20260509142527 46 0.0 2.0 0.01 0.10 0.10 49 1014.9
20260509142048 46 0.0 2.0 0.01 0.10 0.10 49 1014.9
20260509141527 46 0.0 2.0 0.01 0.10 0.10 49 1015.1
20260509141047 45 347 1.0 3.0 0.01 0.10 0.10 49 1015.2
20260509140527 45 346 1.0 2.0 0.01 0.10 0.10 49 1015.3
20260509140027 45 346 1.0 2.0 0.01 0.10 0.10 49 1015.4
20260509135547 45 346 1.0 2.0 0.01 0.10 0.10 49 1015.4
20260509135027 44 0.0 1.0 0.01 0.10 0.10 49 1015.5
20260509134527 44 0.0 2.0 0.01 0.10 0.10 49 1015.5
20260509134027 44 0.0 0.0 0.02 0.10 0.10 49 1015.5
20260509133527 44 0.0 0.0 0.02 0.10 0.10 49 1015.6
20260509133027 44 0.0 0.0 0.01 0.09 0.09 49 1015.7
20260509132527 44 0.0 0.0 0.01 0.09 0.09 49 1015.7
20260509132027 44 0.0 2.0 0.01 0.09 0.09 49 1015.6
20260509131527 44 0.0 0.0 0.01 0.09 0.09 49 1015.7
20260509131107 43 0.0 1.0 0.01 0.09 0.09 49 1015.6
20260509130527 43 0.0 1.0 0.02 0.09 0.09 49 1015.7
20260509130027 43 0.0 2.0 0.02 0.09 0.09 49 1015.7
20260509125527 43 0.0 0.0 0.02 0.09 0.09 49 1015.6
20260509125047 43 0.0 0.0 0.02 0.09 0.09 49 1015.7
20260509124527 42 0.0 1.0 0.02 0.09 0.09 49 1015.6
20260509124107 42 0.0 1.0 0.01 0.08 0.08 49 1015.7
20260509123547 42 0.0 0.0 0.01 0.08 0.08 49 1015.8
20260509123027 42 0.0 1.0 0.01 0.08 0.08 49 1015.7
20260509122547 41 0.0 1.0 0.02 0.08 0.08 49 1015.7
20260509122027 41 0.0 0.0 0.02 0.08 0.08 49 1015.8
20260509121527 41 0.0 0.0 0.02 0.08 0.08 49 1016.0
20260509121027 41 0.0 1.0 0.02 0.08 0.08 49 1015.9
20260509120547 41 0.0 1.0 0.01 0.07 0.07 49 1016.0
20260509120027 41 0.0 0.0 0.02 0.07 0.07 49 1016.1
20260509115527 41 0.0 0.0 0.02 0.07 0.07 49 1016.1
20260509115047 40 0.0 0.0 0.02 0.07 0.07 49 1016.1
20260509114547 40 0.0 0.0 0.02 0.07 0.07 49 1016.2
20260509114107 40 0.0 0.0 0.02 0.07 0.07 50 1016.2
20260509113526 40 0.0 0.0 0.03 0.07 0.07 50 1016.2
20260509113027 40 0.0 0.0 0.03 0.07 0.07 50 1016.3
20260509112527 40 0.0 1.0 0.02 0.06 0.06 50 1016.3
20260509112027 40 0.0 0.0 0.02 0.06 0.06 49 1016.5
20260509111527 39 0.0 0.0 0.03 0.06 0.06 49 1016.4
20260509111027 39 0.0 0.0 0.03 0.06 0.06 49 1016.4
20260509110547 39 0.0 0.0 0.03 0.06 0.06 49 1016.5
20260509110027 39 0.0 0.0 0.02 0.05 0.05 49 1016.6
20260509105547 39 0.0 0.0 0.02 0.05 0.05 49 1016.6
20260509105047 39 0.0 0.0 0.03 0.05 0.05 49 1016.7
20260509104526 39 0.0 0.0 0.03 0.05 0.05 49 1016.7
20260509104027 39 0.0 0.0 0.03 0.05 0.05 49 1016.6
20260509103527 39 0.0 0.0 0.03 0.04 0.04 49 1016.6
20260509103027 39 0.0 0.0 0.03 0.04 0.04 49 1016.5
20260509102527 39 0.0 0.0 0.03 0.04 0.04 49 1016.5
20260509102027 39 0.0 0.0 0.03 0.04 0.04 49 1016.4
20260509101527 39 0.0 0.0 0.03 0.03 0.03 49 1016.2
20260509101027 38 0.0 0.0 0.03 0.03 0.03 50 1016.1
20260509100527 38 0.0 1.0 0.03 0.03 0.03 49 1016.1
20260509100026 38 346 1.0 2.0 0.03 0.03 0.03 49 1016.2
20260509095526 38 0.0 2.0 0.03 0.03 0.03 49 1016.2
20260509095026 38 0.0 2.0 0.02 0.02 0.02 49 1016.2
20260509094526 38 346 1.0 2.0 0.02 0.02 0.02 49 1016.0
20260509094026 38 0.0 2.0 0.02 0.02 0.02 50 1015.8
20260509093527 38 0.0 0.0 0.01 0.01 0.01 50 1015.9
20260509093027 37 0.0 0.0 0.01 0.01 0.01 50 1015.8
20260509092526 37 0.0 1.0 0.01 0.01 0.01 50 1015.9
20260509092026 37 0.0 2.0 0.01 0.01 0.01 49 1015.8
20260509091526 37 0.0 0.0 0.00 0.00 0.00 49 1016.0
20260509091026 37 0.0 0.0 0.00 0.00 0.00 49 1016.0
20260509090526 37 0.0 0.0 0.00 0.00 0.00 49 1015.9
20260509090027 36 0.0 0.0 0.00 0.00 0.00 49 1015.9
20260509085527 36 0.0 0.0 0.00 0.00 0.00 50 1015.7
20260509085027 36 0.0 0.0 0.00 0.00 0.00 50 1015.6
20260509084547 36 0.0 0.0 0.00 0.00 0.00 50 1015.5
20260509084026 36 0.0 0.0 0.00 0.00 0.00 49 1015.5
20260509083526 36 0.0 0.0 0.00 0.00 0.00 49 1015.4
20260509083026 35 0.0 0.0 0.00 0.00 0.00 49 1015.4
20260509082526 35 0.0 0.0 0.00 0.00 0.00 49 1015.4
20260509082026 35 0.0 0.0 0.00 0.00 0.00 49 1015.4
20260509081526 35 0.0 0.0 0.00 0.00 0.00 49 1015.4
20260509081026 35 0.0 2.0 0.00 0.00 0.00 50 1015.4
20260509080547 35 0.0 1.0 0.00 0.00 0.00 49 1015.5
20260509080047 34 0.0 1.0 0.00 0.00 0.00 49 1015.6
20260509075547 34 0.0 1.0 0.00 0.00 0.00 49 1015.5
20260509075026 34 0.0 0.0 0.00 0.00 0.00 49 1015.3
20260509074526 34 0.0 1.0 0.00 0.00 0.00 49 1015.4
20260509074026 34 0.0 0.0 0.00 0.00 0.00 49 1015.5
20260509073526 34 0.0 1.0 0.00 0.00 0.00 48 1015.5
20260509073047 34 0.0 1.0 0.00 0.00 0.00 48 1015.5
20260509072526 34 0.0 1.0 0.00 0.00 0.00 48 1015.4
20260509072026 34 0.0 0.0 0.00 0.00 0.00 48 1015.6
20260509071526 34 346 1.0 2.0 0.00 0.00 0.00 47 1015.3
20260509071027 34 0.0 2.0 0.00 0.00 0.00 47 1015.3
20260509070526 34 0.0 1.0 0.00 0.00 0.00 47 1015.4
20260509070026 34 0.0 1.0 0.00 0.00 0.00 47 1015.5
20260509065526 34 0.0 1.0 0.00 0.00 0.00 47 1015.4
20260509065026 34 0.0 1.0 0.00 0.00 0.00 46 1015.5
20260509064526 34 0.0 1.0 0.00 0.00 0.00 46 1015.8
20260509064026 34 0.0 1.0 0.00 0.00 0.00 46 1015.7
20260509063526 34 0.0 0.0 0.00 0.00 0.00 46 1015.6
20260509063026 34 0.0 1.0 0.00 0.00 0.00 45 1015.6
20260509062526 34 0.0 0.0 0.00 0.00 0.00 45 1015.7
20260509062026 34 0.0 0.0 0.00 0.00 0.00 45 1015.7
20260509061547 34 0.0 0.0 0.00 0.00 0.00 45 1015.7
20260509061026 34 0.0 1.0 0.00 0.00 0.00 45 1015.8
20260509060526 34 0.0 1.0 0.00 0.00 0.00 44 1015.9
20260509060026 34 0.0 1.0 0.00 0.00 0.00 44 1015.8
20260509055526 34 0.0 1.0 0.00 0.00 0.00 44 1015.8
20260509055046 34 0.0 0.0 0.00 0.00 0.00 44 1015.9
20260509054526 34 0.0 1.0 0.00 0.00 0.00 44 1016.0
20260509054026 34 0.0 1.0 0.00 0.00 0.00 45 1016.0
20260509053526 34 0.0 0.0 0.00 0.00 0.00 46 1016.0
20260509053026 34 0.0 0.0 0.00 0.00 0.00 46 1016.0
20260509052526 34 0.0 1.0 0.00 0.00 0.00 46 1015.8
20260509052026 34 0.0 1.0 0.00 0.00 0.00 46 1015.7
20260509051526 35 0.0 1.0 0.00 0.00 0.00 46 1015.6
20260509051026 35 346 2.0 3.0 0.00 0.00 0.00 46 1015.5
20260509050526 35 0.0 2.0 0.00 0.00 0.00 46 1015.7
20260509050026 35 0.0 0.0 0.00 0.00 0.00 46 1015.8
20260509045526 35 0.0 0.0 0.00 0.00 0.00 46 1015.8
20260509045026 35 0.0 0.0 0.00 0.00 0.00 46 1015.6
20260509044527 36 0.0 0.0 0.00 0.00 0.00 46 1015.5
20260509044026 36 0.0 0.0 0.00 0.00 0.00 46 1015.5
20260509043526 36 0.0 1.0 0.00 0.00 0.00 46 1015.4
20260509043026 36 346 1.0 2.0 0.00 0.00 0.00 46 1015.5
20260509042526 36 0.0 0.0 0.00 0.00 0.00 46 1015.6
20260509042046 36 0.0 0.0 0.00 0.00 0.00 47 1015.6
20260509041546 36 0.0 0.0 0.00 0.00 0.00 47 1015.5
20260509041026 36 0.0 0.0 0.00 0.00 0.00 49 1015.5
20260509040526 36 0.0 0.0 0.00 0.00 0.00 50 1015.4
20260509040026 36 0.0 0.0 0.00 0.00 0.00 52 1015.5
20260509035526 36 0.0 0.0 0.00 0.00 0.00 53 1015.6
20260509035047 36 0.0 0.0 0.00 0.00 0.00 55 1015.6
20260509034526 36 0.0 0.0 0.00 0.00 0.00 54 1015.5
20260509034026 36 0.0 0.0 0.00 0.00 0.00 55 1015.4
20260509033526 36 0.0 0.0 0.00 0.00 0.00 56 1015.4
20260509033026 36 0.0 0.0 0.00 0.00 0.00 56 1015.3
20260509032526 36 0.0 0.0 0.00 0.00 0.00 57 1015.4
20260509032026 36 0.0 0.0 0.00 0.00 0.00 58 1015.4
20260509031526 36 0.0 0.0 0.00 0.00 0.00 58 1015.4
20260509031026 36 0.0 0.0 0.00 0.00 0.00 59 1015.5
20260509030526 37 0.0 0.0 0.00 0.00 0.00 59 1015.4
20260509030026 37 0.0 0.0 0.00 0.00 0.00 59 1015.4
20260509025526 37 0.0 0.0 0.00 0.00 0.00 60 1015.4
20260509025026 37 0.0 0.0 0.00 0.00 0.00 60 1015.3
20260509024607 37 0.0 0.0 0.00 0.00 0.00 62 1015.1
20260509024026 37 0.0 0.0 0.00 0.00 0.00 62 1015.0
20260509023526 37 0.0 0.0 0.00 0.00 0.00 63 1015.1
20260509023026 38 0.0 0.0 0.00 0.00 0.00 63 1015.1
20260509022526 38 0.0 0.0 0.00 0.00 0.00 62 1015.0
20260509022026 38 0.0 0.0 0.00 0.00 0.00 62 1015.1
20260509021526 38 0.0 0.0 0.00 0.00 0.00 62 1015.1
20260509021026 38 0.0 0.0 0.00 0.00 0.00 62 1015.0
20260509020526 39 0.0 0.0 0.00 0.00 0.00 61 1015.0
20260509020026 39 0.0 0.0 0.00 0.00 0.00 61 1014.9
20260509015526 39 0.0 0.0 0.00 0.00 0.00 61 1014.8
20260509015026 40 0.0 0.0 0.00 0.00 0.00 61 1014.8
20260509014546 40 0.0 0.0 0.00 0.00 0.00 61 1014.7
20260509014026 40 0.0 0.0 0.00 0.00 0.00 60 1014.7
20260509013526 41 0.0 0.0 0.00 0.00 0.00 60 1014.6
20260509013026 41 0.0 0.0 0.00 0.00 0.00 60 1014.6
20260509012527 41 0.0 0.0 0.00 0.00 0.00 59 1014.5
20260509012026 42 0.0 0.0 0.00 0.00 0.00 58 1014.3
20260509011527 42 0.0 0.0 0.00 0.00 0.00 58 1014.2
20260509011027 42 0.0 0.0 0.00 0.00 0.00 57 1014.1
20260509010527 43 0.0 0.0 0.00 0.00 0.00 58 1014.0
20260509010027 43 0.0 0.0 0.00 0.00 0.00 56 1013.9
20260509005527 44 0.0 0.0 0.00 0.00 0.00 55 1013.9
20260509005027 44 0.0 0.0 0.00 0.00 0.00 55 1013.9
20260509004547 45 0.0 0.0 0.00 0.00 0.00 54 1013.8
20260509004027 45 0.0 0.0 0.00 0.00 0.00 53 1013.7
20260509003527 46 0.0 0.0 0.00 0.00 0.00 52 1013.6
20260509003026 46 0.0 0.0 0.00 0.00 0.00 51 1013.5
20260509002527 47 0.0 0.0 0.00 0.00 0.00 49 1013.4
20260509002047 48 0.0 0.0 0.00 0.00 0.00 48 1013.4
20260509001527 48 0.0 0.0 0.00 0.00 0.00 46 1013.4
20260509001027 49 0.0 0.0 0.00 0.00 0.00 45 1013.2
20260509000526 50 0.0 0.0 0.00 0.00 0.00 44 1013.2
20260509000027 50 0.0 1.0 0.00 0.00 0.00 44 1013.2
20260508235527 51 0.0 1.0 0.00 0.00 0.00 42 1013.1
20260508235027 51 0.0 1.0 0.00 0.00 0.00 42 1012.9
20260508234527 51 356 1.0 4.0 0.00 0.00 0.00 40 1012.7
20260508234027 51 348 2.0 4.0 0.00 0.00 0.00 39 1012.7
20260508233526 52 347 2.0 5.0 0.00 0.00 0.00 39 1012.8
20260508233027 52 1 1.0 3.0 0.00 0.00 0.00 40 1012.7
20260508232527 52 346 2.0 5.0 0.00 0.00 0.00 39 1012.5
20260508232027 52 323 1.0 4.0 0.00 0.00 0.00 39 1012.5
20260508231527 53 352 2.0 6.0 0.00 0.00 0.00 38 1012.5
20260508231047 53 339 1.0 4.0 0.00 0.00 0.00 40 1012.4
20260508230547 53 336 2.0 6.0 0.00 0.00 0.00 39 1012.2
20260508230027 53 340 3.0 8.0 0.00 0.00 0.00 38 1012.2
20260508225607 54 327 2.0 4.0 0.00 0.00 0.00 39 1012.2
20260508225026 54 344 2.0 6.0 0.00 0.00 0.00 38 1012.1
20260508224527 54 341 2.0 9.0 0.00 0.00 0.00 37 1012.1
20260508224027 54 338 3.0 8.0 0.00 0.00 0.00 37 1012.1
20260508223526 54 300 3.0 11.0 0.00 0.00 0.00 37 1012.1
20260508223027 54 312 2.0 8.0 0.00 0.00 0.00 36 1012.1
20260508222528 55 348 2.0 6.0 0.00 0.00 0.00 38 1011.9
20260508222047 55 328 2.0 6.0 0.00 0.00 0.00 36 1011.9
20260508221527 55 279 2.0 4.0 0.00 0.00 0.00 36 1011.9
20260508221027 55 11 2.0 4.0 0.00 0.00 0.00 36 1011.9
20260508220527 55 350 2.0 10.0 0.00 0.00 0.00 36 1012.0
20260508220027 55 358 4.0 12.0 0.00 0.00 0.00 36 1012.0
20260508215526 55 329 3.0 9.0 0.00 0.00 0.00 36 1011.9
20260508215026 55 328 2.0 6.0 0.00 0.00 0.00 37 1012.0
20260508214527 56 353 4.0 9.0 0.00 0.00 0.00 37 1012.0
20260508214027 56 347 4.0 9.0 0.00 0.00 0.00 37 1011.9
20260508213526 56 31 2.0 5.0 0.00 0.00 0.00 38 1012.0
20260508213026 56 355 2.0 4.0 0.00 0.00 0.00 37 1012.1
20260508212526 56 347 3.0 7.0 0.00 0.00 0.00 37 1012.1
20260508212026 56 189 2.0 7.0 0.00 0.00 0.00 38 1012.0
20260508211527 56 199 2.0 8.0 0.00 0.00 0.00 36 1012.0
20260508211047 56 290 2.0 7.0 0.00 0.00 0.00 38 1011.9
20260508210526 56 330 3.0 8.0 0.00 0.00 0.00 39 1011.9
20260508210026 56 63 1.0 3.0 0.00 0.00 0.00 39 1011.9
20260508205527 56 358 4.0 9.0 0.00 0.00 0.00 39 1011.8
20260508205026 56 109 3.0 5.0 0.00 0.00 0.00 38 1011.7
20260508204526 56 55 2.0 8.0 0.00 0.00 0.00 40 1011.9
20260508204047 56 13 2.0 6.0 0.00 0.00 0.00 41 1011.8
20260508203527 55 103 2.0 6.0 0.00 0.00 0.00 39 1011.6
20260508203026 55 357 3.0 8.0 0.00 0.00 0.00 40 1011.9
20260508202526 55 336 3.0 9.0 0.00 0.00 0.00 41 1011.9
20260508202026 55 346 4.0 14.0 0.00 0.00 0.00 40 1011.9
20260508201547 54 325 2.0 7.0 0.00 0.00 0.00 41 1012.0
20260508201107 54 350 3.0 9.0 0.00 0.00 0.00 41 1012.2
20260508200526 54 337 3.0 8.0 0.00 0.00 0.00 44 1012.1
20260508200026 54 356 4.0 10.0 0.00 0.00 0.00 43 1012.2
20260508195526 53 346 3.0 7.0 0.00 0.00 0.00 44 1012.1
20260508195027 53 1 3.0 9.0 0.00 0.00 0.00 42 1012.3
20260508194526 53 5 2.0 5.0 0.00 0.00 0.00 41 1012.2
20260508194026 53 316 2.0 5.0 0.00 0.00 0.00 38 1012.3
20260508193527 53 308 1.0 5.0 0.00 0.00 0.00 39 1012.1
20260508193027 53 337 4.0 8.0 0.00 0.00 0.00 38 1012.0
20260508192526 54 343 3.0 7.0 0.00 0.00 0.00 37 1012.1
20260508192026 54 331 3.0 9.0 0.00 0.00 0.00 37 1012.0
20260508191527 53 335 3.0 9.0 0.00 0.00 0.00 37 1012.0
20260508191047 53 332 4.0 15.0 0.00 0.00 0.00 39 1012.1
20260508190547 53 342 3.0 8.0 0.00 0.00 0.00 39 1012.0
20260508190026 54 6 3.0 11.0 0.00 0.00 0.00 35 1011.9
20260508185526 54 333 2.0 7.0 0.00 0.00 0.00 37 1012.1
20260508185026 54 318 2.0 10.0 0.00 0.00 0.00 38 1012.0
20260508184526 54 312 1.0 2.0 0.00 0.00 0.00 39 1011.9
20260508184026 54 17 1.0 3.0 0.00 0.00 0.00 39 1011.9
20260508183526 54 352 3.0 9.0 0.00 0.00 0.00 38 1011.8
20260508183026 54 349 3.0 6.0 0.00 0.00 0.00 35 1011.8
20260508182526 54 344 3.0 6.0 0.00 0.00 0.00 39 1011.9
20260508182026 54 0.0 3.0 0.00 0.00 0.00 40 1011.8
20260508181526 54 0.0 1.0 0.00 0.00 0.00 42 1011.8
20260508181027 53 313 1.0 4.0 0.00 0.00 0.00 42 1011.8
20260508180526 53 125 1.0 4.0 0.00 0.00 0.00 40 1011.8
20260508180026 53 188 2.0 5.0 0.00 0.00 0.00 41 1011.8
20260508175526 53 197 2.0 6.0 0.00 0.00 0.00 44 1011.8
20260508175026 53 176 2.0 3.0 0.00 0.00 0.00 43 1011.8
20260508174526 54 219 2.0 4.0 0.00 0.00 0.00 42 1011.8
20260508174026 55 238 3.0 8.0 0.00 0.00 0.00 40 1011.9
20260508173526 56 21 1.0 3.0 0.00 0.00 0.00 33 1011.6
20260508173026 56 342 2.0 4.0 0.00 0.00 0.00 33 1011.6
20260508172526 56 350 2.0 5.0 0.00 0.00 0.00 33 1011.4
20260508172026 56 299 2.0 4.0 0.00 0.00 0.00 34 1011.4
20260508171526 56 185 2.0 6.0 0.00 0.00 0.00 32 1011.4
20260508171026 56 341 3.0 10.0 0.00 0.00 0.00 32 1011.3
20260508170526 57 285 2.0 5.0 0.00 0.00 0.00 31 1011.3
20260508170026 57 347 3.0 8.0 0.00 0.00 0.00 32 1011.3
20260508165526 57 6 2.0 4.0 0.00 0.00 0.00 31 1011.3
20260508165026 57 333 4.0 10.0 0.00 0.00 0.00 32 1011.4
20260508164526 57 106 3.0 8.0 0.00 0.00 0.00 32 1011.4
20260508164026 57 357 5.0 12.0 0.00 0.00 0.00 33 1011.5
20260508163546 56 352 2.0 4.0 0.00 0.00 0.00 36 1011.5
20260508163026 57 9 2.0 4.0 0.00 0.00 0.00 34 1011.5
20260508162526 57 282 2.0 5.0 0.00 0.00 0.00 34 1011.7
20260508162026 57 345 3.0 10.0 0.00 0.00 0.00 33 1011.7
20260508161526 56 330 4.0 10.0 0.00 0.00 0.00 32 1011.8
20260508161026 56 347 4.0 9.0 0.00 0.00 0.00 34 1011.8
20260508160526 56 353 4.0 11.0 0.00 0.00 0.00 36 1011.9
20260508160026 56 304 3.0 9.0 0.00 0.00 0.00 37 1012.0
20260508155525 56 332 3.0 10.0 0.00 0.00 0.00 34 1011.9
20260508155025 55 355 3.0 10.0 0.00 0.00 0.00 36 1012.0
20260508154546 55 192 2.0 6.0 0.00 0.00 0.00 35 1012.1
20260508154026 56 269 1.0 3.0 0.00 0.00 0.00 34 1012.2
20260508153526 56 324 3.0 9.0 0.00 0.00 0.00 36 1012.1
20260508153026 56 353 5.0 13.0 0.00 0.00 0.00 36 1012.2
20260508152526 56 354 5.0 10.0 0.00 0.00 0.00 37 1012.1
20260508152025 56 353 3.0 8.0 0.00 0.00 0.00 36 1012.1
20260508151526 55 345 4.0 11.0 0.00 0.00 0.00 44 1011.9
20260508151046 55 342 5.0 14.0 0.00 0.00 0.00 36 1012.1
20260508150526 55 321 2.0 6.0 0.00 0.00 0.00 35 1012.1
20260508150026 55 358 4.0 11.0 0.00 0.00 0.00 37 1011.9
20260508145526 54 354 3.0 11.0 0.00 0.00 0.00 39 1012.0